Location: Ferchesar
(52.6477°N, 12.4298°E)
Time: 17:34:01
(UTC+01:00)

Explorer 7 - Pass Details

Date: 09 December 2021
Orbit: 483 x 674 km, 50.3° (Epoch: 23 January)

Event Time Altitude Azimuth Distance (km) Brightness Sun altitude
Rises 09:55:31 0° 278° (W) 2,695 10.0 9.6°
Reaches altitude 10° 09:58:29 10° 257° (WSW) 1,761 9.3 9.8°
Maximum altitude 10:00:55 16° 219° (SW) 1,404 9.3 10.0°
Drops below altitude 10° 10:03:17 10° 180° (S) 1,703 10.6 10.1°
Sets 10:06:04 0° 158° (SSE) 2,559 12.5 10.3°
